Time,TemperatureF,DewpointF,PressureIn,WindDirection,WindDirectionDegrees,WindSpeedMPH,WindSpeedGustMPH,Humidity,HourlyPrecipIn,Conditions,Clouds,dailyrainin,SoftwareType,DateUTC
2013-11-24 00:02:00,16.0,7.9,30.62,North,360,9.2,9.2,70,0.00,CLR,,0.00,WeatherDisplay:10.37,2013-11-24 06:02:00,
2013-11-24 00:07:00,16.0,7.9,30.62,NNE,16,5.8,5.8,70,0.00,CLR,,0.00,WeatherDisplay:10.37,2013-11-24 06:07:00,
2013-11-24 00:12:00,15.9,7.8,30.62,North,360,10.4,10.4,70,0.00,CLR,,0.00,WeatherDisplay:10.37,2013-11-24 06:12:00,
2013-11-24 00:17:00,15.9,7.8,30.62,North,355,5.8,5.8,70,0.00,CLR,,0.00,WeatherDisplay:10.37,2013-11-24 06:17:00,
2013-11-24 00:22:00,15.9,7.8,30.62,North,355,6.9,6.9,70,0.00,CLR,,0.00,WeatherDisplay:10.37,2013-11-24 06:22:00,
2013-11-24 00:27:00,15.8,9.9,30.61,NNW,348,11.5,11.5,77,0.00,CLR,,0.00,WeatherDisplay:10.37,2013-11-24 06:27:00,
2013-11-24 00:32:00,15.8,7.7,30.61,NNE,13,9.2,9.2,70,0.00,CLR,,0.00,WeatherDisplay:10.37,2013-11-24 06:32:00,
2013-11-24 00:37:00,15.7,7.6,30.61,NE,34,10.0,10.0,70,0.00,CLR,,0.00,WeatherDisplay:10.37,2013-11-24 06:37:00,
2013-11-24 00:42:00,15.7,7.6,30.61,North,360,9.2,9.2,70,0.00,CLR,,0.00,WeatherDisplay:10.37,2013-11-24 06:42:00,
2013-11-24 00:47:00,15.7,7.6,30.61,NNW,340,11.5,11.5,70,0.00,CLR,,0.00,WeatherDisplay:10.37,2013-11-24 06:47:00,
2013-11-24 00:52:00,15.6,7.6,30.61,North,5,9.2,9.2,70,0.00,CLR,,0.00,WeatherDisplay:10.37,2013-11-24 06:52:00,
2013-11-24 00:57:00,15.6,7.6,30.61,NNE,29,11.5,11.5,70,0.00,CLR,,0.00,WeatherDisplay:10.37,2013-11-24 06:57:00,
2013-11-24 01:02:00,15.6,7.6,30.61,NNW,338,6.9,6.9,70,0.00,CLR,,0.00,WeatherDisplay:10.37,2013-11-24 07:02:00,
2013-11-24 01:07:00,15.5,7.5,30.61,North,5,10.0,10.0,70,0.00,CLR,,0.00,WeatherDisplay:10.37,2013-11-24 07:07:00,
2013-11-24 01:12:00,15.4,7.4,30.61,North,360,9.2,9.2,70,0.00,CLR,,0.00,WeatherDisplay:10.37,2013-11-24 07:12:00,
2013-11-24 01:17:00,15.3,7.3,30.61,North,9,11.5,11.5,70,0.00,CLR,,0.00,WeatherDisplay:10.37,2013-11-24 07:17:00,
2013-11-24 01:22:00,15.3,7.3,30.61,North,360,6.9,6.9,70,0.00,CLR,,0.00,WeatherDisplay:10.37,2013-11-24 07:22:00,
2013-11-24 01:27:00,15.2,7.5,30.61,North,351,4.6,4.6,71,0.00,CLR,,0.00,WeatherDisplay:10.37,2013-11-24 07:27:00,
2013-11-24 01:32:00,15.1,7.4,30.61,North,11,6.9,6.9,71,0.00,CLR,,0.00,WeatherDisplay:10.37,2013-11-24 07:32:00,
2013-11-24 01:37:00,15.1,7.4,30.61,NNE,18,6.9,6.9,71,0.00,CLR,,0.00,WeatherDisplay:10.37,2013-11-24 07:37:00,
2013-11-24 01:42:00,15.0,7.3,30.61,NNE,17,9.0,9.0,71,0.00,CLR,,0.00,WeatherDisplay:10.37,2013-11-24 07:42:00,
2013-11-24 01:47:00,15.0,7.3,30.61,NNE,18,4.6,4.6,71,0.00,CLR,,0.00,WeatherDisplay:10.37,2013-11-24 07:47:00,
2013-11-24 01:52:00,14.9,7.2,30.61,NNE,25,5.8,5.8,71,0.00,CLR,,0.00,WeatherDisplay:10.37,2013-11-24 07:52:00,
2013-11-24 01:57:00,14.8,7.1,30.61,North,5,9.2,9.2,71,0.00,CLR,,0.00,WeatherDisplay:10.37,2013-11-24 07:57:00,
2013-11-24 02:02:00,14.9,7.2,30.61,NE,34,11.5,11.5,71,0.00,CLR,,0.00,WeatherDisplay:10.37,2013-11-24 08:02:00,
2013-11-24 02:07:00,14.8,7.1,30.62,North,360,5.8,5.8,71,0.00,CLR,,0.00,WeatherDisplay:10.37,2013-11-24 08:07:00,
2013-11-24 02:12:00,14.7,7.0,30.62,NNW,337,12.7,12.7,71,0.00,CLR,,0.00,WeatherDisplay:10.37,2013-11-24 08:12:00,
2013-11-24 02:17:00,14.6,6.9,30.61,North,5,9.2,9.2,71,0.00,CLR,,0.00,WeatherDisplay:10.37,2013-11-24 08:17:00,
2013-11-24 02:22:00,14.5,7.1,30.62,North,5,8.1,8.1,72,0.00,CLR,,0.00,WeatherDisplay:10.37,2013-11-24 08:22:00,
2013-11-24 02:27:00,14.4,6.7,30.62,North,355,5.0,5.0,71,0.00,CLR,,0.00,WeatherDisplay:10.37,2013-11-24 08:27:00,
2013-11-24 02:32:00,14.3,6.9,30.62,North,355,5.8,5.8,72,0.00,CLR,,0.00,WeatherDisplay:10.37,2013-11-24 08:32:00,
2013-11-24 02:37:00,14.3,6.9,30.61,NNE,29,4.6,4.6,72,0.00,CLR,,0.00,WeatherDisplay:10.37,2013-11-24 08:37:00,
2013-11-24 02:42:00,14.3,6.9,30.61,NNE,12,5.8,5.8,72,0.00,CLR,,0.00,WeatherDisplay:10.37,2013-11-24 08:42:00,
2013-11-24 02:47:00,14.3,6.9,30.61,NNW,347,11.5,11.5,72,0.00,CLR,,0.00,WeatherDisplay:10.37,2013-11-24 08:47:00,
2013-11-24 02:52:00,14.3,6.9,30.62,NNE,19,5.8,5.8,72,0.00,CLR,,0.00,WeatherDisplay:10.37,2013-11-24 08:52:00,
2013-11-24 02:57:00,14.2,6.8,30.62,NNE,17,5.8,5.8,72,0.00,CLR,,0.00,WeatherDisplay:10.37,2013-11-24 08:57:00,
2013-11-24 03:02:00,14.1,6.7,30.61,NNE,15,6.0,6.0,72,0.00,CLR,,0.00,WeatherDisplay:10.37,2013-11-24 09:02:00,
2013-11-24 03:07:00,14.0,6.6,30.61,NNE,15,6.9,6.9,72,0.00,CLR,,0.00,WeatherDisplay:10.37,2013-11-24 09:07:00,
2013-11-24 03:12:00,14.0,6.6,30.61,NNE,17,5.8,5.8,72,0.00,CLR,,0.00,WeatherDisplay:10.37,2013-11-24 09:12:00,
2013-11-24 03:17:00,14.0,6.6,30.61,NNE,15,4.6,4.6,72,0.00,CLR,,0.00,WeatherDisplay:10.37,2013-11-24 09:17:00,
2013-11-24 03:22:00,13.9,6.5,30.61,North,9,5.8,5.8,72,0.00,CLR,,0.00,WeatherDisplay:10.37,2013-11-24 09:22:00,
2013-11-24 03:27:00,13.9,6.5,30.62,North,5,5.8,5.8,72,0.00,CLR,,0.00,WeatherDisplay:10.37,2013-11-24 09:27:00,
2013-11-24 03:32:00,13.8,6.4,30.62,NNE,19,6.9,6.9,72,0.00,CLR,,0.00,WeatherDisplay:10.37,2013-11-24 09:32:00,
2013-11-24 03:37:00,13.7,6.3,30.62,NNE,23,8.1,8.1,72,0.00,CLR,,0.00,WeatherDisplay:10.37,2013-11-24 09:37:00,
2013-11-24 03:42:00,13.7,6.3,30.61,NNE,13,11.0,11.0,72,0.00,CLR,,0.00,WeatherDisplay:10.37,2013-11-24 09:42:00,
2013-11-24 03:47:00,13.7,6.3,30.61,North,360,9.2,9.2,72,0.00,CLR,,0.00,WeatherDisplay:10.37,2013-11-24 09:47:00,
2013-11-24 03:52:00,13.6,6.2,30.61,North,9,10.4,10.4,72,0.00,CLR,,0.00,WeatherDisplay:10.37,2013-11-24 09:52:00,
2013-11-24 03:57:00,13.6,6.5,30.61,NNE,17,11.5,11.5,73,0.00,CLR,,0.00,WeatherDisplay:10.37,2013-11-24 09:57:00,
2013-11-24 04:02:00,13.5,6.1,30.61,North,5,9.2,9.2,72,0.00,CLR,,0.00,WeatherDisplay:10.37,2013-11-24 10:02:00,
2013-11-24 04:07:00,13.5,6.1,30.62,NNE,18,5.8,5.8,72,0.00,CLR,,0.00,WeatherDisplay:10.37,2013-11-24 10:07:00,
2013-11-24 04:12:00,13.5,6.5,30.61,NNE,24,4.6,4.6,73,0.00,CLR,,0.00,WeatherDisplay:10.37,2013-11-24 10:12:00,
2013-11-24 04:17:00,13.4,6.4,30.62,NNW,329,6.9,6.9,73,0.00,CLR,,0.00,WeatherDisplay:10.37,2013-11-24 10:17:00,
2013-11-24 04:22:00,13.4,6.4,30.61,NNE,21,6.0,6.0,73,0.00,CLR,,0.00,WeatherDisplay:10.37,2013-11-24 10:22:00,
2013-11-24 04:27:00,13.3,6.3,30.61,North,360,4.6,4.6,73,0.00,CLR,,0.00,WeatherDisplay:10.37,2013-11-24 10:27:00,
2013-11-24 04:32:00,13.3,6.3,30.60,North,10,5.8,5.8,73,0.00,CLR,,0.00,WeatherDisplay:10.37,2013-11-24 10:32:00,
2013-11-24 04:37:00,13.2,6.2,30.61,NNE,26,9.2,9.2,73,0.00,CLR,,0.00,WeatherDisplay:10.37,2013-11-24 10:37:00,
2013-11-24 04:42:00,13.2,6.2,30.61,NNE,18,6.9,6.9,73,0.00,CLR,,0.00,WeatherDisplay:10.37,2013-11-24 10:42:00,
2013-11-24 04:48:00,13.2,6.2,30.60,North,360,4.0,4.0,73,0.00,CLR,,0.00,WeatherDisplay:10.37,2013-11-24 10:48:00,
2013-11-24 04:53:00,13.1,6.1,30.61,North,360,4.6,4.6,73,0.00,CLR,,0.00,WeatherDisplay:10.37,2013-11-24 10:53:00,
2013-11-24 04:58:00,13.1,6.1,30.61,NNW,342,4.6,4.6,73,0.00,CLR,,0.00,WeatherDisplay:10.37,2013-11-24 10:58:00,
2013-11-24 05:03:00,13.0,6.0,30.61,NNW,330,5.8,5.8,73,0.00,CLR,,0.00,WeatherDisplay:10.37,2013-11-24 11:03:00,
2013-11-24 05:08:00,12.8,5.8,30.61,NNW,338,5.0,5.0,73,0.00,CLR,,0.00,WeatherDisplay:10.37,2013-11-24 11:08:00,
2013-11-24 05:13:00,12.8,5.8,30.61,North,5,3.5,3.5,73,0.00,CLR,,0.00,WeatherDisplay:10.37,2013-11-24 11:13:00,
2013-11-24 05:18:00,12.7,5.7,30.61,North,360,3.5,3.5,73,0.00,CLR,,0.00,WeatherDisplay:10.37,2013-11-24 11:18:00,
2013-11-24 05:23:00,12.6,5.6,30.62,North,355,3.5,3.5,73,0.00,CLR,,0.00,WeatherDisplay:10.37,2013-11-24 11:23:00,
2013-11-24 05:28:00,12.6,5.6,30.62,North,355,2.3,2.3,73,0.00,CLR,,0.00,WeatherDisplay:10.37,2013-11-24 11:28:00,
2013-11-24 05:33:00,12.6,5.6,30.62,NNW,337,3.5,3.5,73,0.00,CLR,,0.00,WeatherDisplay:10.37,2013-11-24 11:33:00,
2013-11-24 05:38:00,12.5,5.5,30.62,NNW,337,3.5,3.5,73,0.00,CLR,,0.00,WeatherDisplay:10.37,2013-11-24 11:38:00,
2013-11-24 05:43:00,12.5,5.5,30.62,NNW,348,3.5,3.5,73,0.00,CLR,,0.00,WeatherDisplay:10.37,2013-11-24 11:43:00,
2013-11-24 05:48:00,12.4,5.4,30.62,NNW,348,1.2,1.2,73,0.00,CLR,,0.00,WeatherDisplay:10.37,2013-11-24 11:48:00,
2013-11-24 05:53:00,12.4,5.4,30.63,NNW,348,2.3,2.3,73,0.00,CLR,,0.00,WeatherDisplay:10.37,2013-11-24 11:53:00,
2013-11-24 05:58:00,12.3,5.3,30.63,NNW,348,2.3,2.3,73,0.00,CLR,,0.00,WeatherDisplay:10.37,2013-11-24 11:58:00,
2013-11-24 06:03:00,12.3,5.3,30.63,NNW,348,2.3,2.3,73,0.00,CLR,,0.00,WeatherDisplay:10.37,2013-11-24 12:03:00,
2013-11-24 06:08:00,12.2,5.2,30.64,NNW,348,3.0,3.0,73,0.00,CLR,,0.00,WeatherDisplay:10.37,2013-11-24 12:08:00,
2013-11-24 06:13:00,12.3,5.3,30.64,NNW,342,4.6,4.6,73,0.00,CLR,,0.00,WeatherDisplay:10.37,2013-11-24 12:13:00,
2013-11-24 06:18:00,12.3,5.3,30.64,NNW,341,2.3,2.3,73,0.00,CLR,,0.00,WeatherDisplay:10.37,2013-11-24 12:18:00,
2013-11-24 06:23:00,12.2,5.2,30.64,NNW,341,2.3,2.3,73,0.00,CLR,,0.00,WeatherDisplay:10.37,2013-11-24 12:23:00,
2013-11-24 06:28:00,12.2,5.2,30.64,NNW,341,3.5,3.5,73,0.00,CLR,,0.00,WeatherDisplay:10.37,2013-11-24 12:28:00,
2013-11-24 06:33:00,12.2,5.2,30.64,NNW,342,2.3,2.3,73,0.00,CLR,,0.00,WeatherDisplay:10.37,2013-11-24 12:33:00,
2013-11-24 06:38:00,12.2,5.2,30.65,NNW,342,3.5,3.5,73,0.00,CLR,,0.00,WeatherDisplay:10.37,2013-11-24 12:38:00,
2013-11-24 06:43:00,12.2,5.2,30.65,NNW,342,2.3,2.3,73,0.00,CLR,,0.00,WeatherDisplay:10.37,2013-11-24 12:43:00,
2013-11-24 06:48:00,12.2,5.5,30.65,NNW,334,5.0,5.0,74,0.00,CLR,,0.00,WeatherDisplay:10.37,2013-11-24 12:48:00,
2013-11-24 06:53:00,12.2,5.5,30.65,NNW,334,4.6,4.6,74,0.00,CLR,,0.00,WeatherDisplay:10.37,2013-11-24 12:53:00,
2013-11-24 06:58:00,12.1,5.4,30.65,NNW,334,3.5,3.5,74,0.00,CLR,,0.00,WeatherDisplay:10.37,2013-11-24 12:58:00,
2013-11-24 07:03:00,12.1,5.4,30.66,NNW,334,3.5,3.5,74,0.00,CLR,,0.00,WeatherDisplay:10.37,2013-11-24 13:03:00,
2013-11-24 07:08:00,12.0,5.3,30.66,NNW,334,3.5,3.5,74,0.00,CLR,,0.00,WeatherDisplay:10.37,2013-11-24 13:08:00,
2013-11-24 07:13:00,12.1,5.4,30.66,NNW,334,1.2,1.2,74,0.00,CLR,,0.00,WeatherDisplay:10.37,2013-11-24 13:13:00,
2013-11-24 07:18:00,12.1,5.1,30.66,NNW,334,2.3,2.3,73,0.00,CLR,,0.00,WeatherDisplay:10.37,2013-11-24 13:18:00,
2013-11-24 07:23:00,12.3,5.3,30.67,NNW,334,2.3,2.3,73,0.00,CLR,,0.00,WeatherDisplay:10.37,2013-11-24 13:23:00,
2013-11-24 07:28:00,12.6,5.9,30.67,NNW,334,3.5,3.5,74,0.00,CLR,,0.00,WeatherDisplay:10.37,2013-11-24 13:28:00,
2013-11-24 07:33:00,12.8,5.8,30.67,NNW,333,3.5,3.5,73,0.00,CLR,,0.00,WeatherDisplay:10.37,2013-11-24 13:33:00,
2013-11-24 07:38:00,13.0,6.0,30.67,NNW,332,5.8,5.8,73,0.00,CLR,,0.00,WeatherDisplay:10.37,2013-11-24 13:38:00,
2013-11-24 07:43:00,13.3,6.3,30.67,NNW,330,3.5,3.5,73,0.00,CLR,,0.00,WeatherDisplay:10.37,2013-11-24 13:43:00,
2013-11-24 07:48:00,13.5,6.5,30.67,NNW,342,3.5,3.5,73,0.00,CLR,,0.00,WeatherDisplay:10.37,2013-11-24 13:48:00,
2013-11-24 07:53:00,13.8,6.7,30.67,NNW,327,3.5,3.8,73,0.00,CLR,,0.00,WeatherDisplay:10.37,2013-11-24 13:53:00,
2013-11-24 07:58:00,14.1,7.0,30.68,NNW,331,4.0,4.0,73,0.00,CLR,,0.00,WeatherDisplay:10.37,2013-11-24 13:58:00,
2013-11-24 08:03:00,14.3,7.2,30.68,NNW,338,3.5,3.5,73,0.00,CLR,,0.00,WeatherDisplay:10.37,2013-11-24 14:03:00,
2013-11-24 08:08:00,14.5,7.1,30.68,NNW,344,4.6,4.6,72,0.00,CLR,,0.00,WeatherDisplay:10.37,2013-11-24 14:08:00,
2013-11-24 08:13:00,14.8,7.4,30.68,NNW,344,3.5,3.5,72,0.00,CLR,,0.00,WeatherDisplay:10.37,2013-11-24 14:13:00,
2013-11-24 08:18:00,15.1,7.7,30.68,NW,322,6.0,6.0,72,0.00,CLR,,0.00,WeatherDisplay:10.37,2013-11-24 14:18:00,
2013-11-24 08:23:00,15.2,7.5,30.68,NNW,329,3.0,3.0,71,0.00,CLR,,0.00,WeatherDisplay:10.37,2013-11-24 14:23:00,
2013-11-24 08:28:00,15.4,7.7,30.68,NNW,346,8.1,8.1,71,0.00,CLR,,0.00,WeatherDisplay:10.37,2013-11-24 14:28:00,
2013-11-24 08:33:00,15.6,7.6,30.68,NNW,340,5.8,5.8,70,0.00,CLR,,0.00,WeatherDisplay:10.37,2013-11-24 14:33:00,
2013-11-24 08:38:00,15.8,7.7,30.68,NNW,344,4.0,4.0,70,0.00,CLR,,0.00,WeatherDisplay:10.37,2013-11-24 14:38:00,
2013-11-24 08:43:00,15.9,7.8,30.68,North,11,6.9,6.9,70,0.00,CLR,,0.00,WeatherDisplay:10.37,2013-11-24 14:43:00,
2013-11-24 08:48:00,16.1,8.0,30.68,NNW,348,3.5,3.5,70,0.00,CLR,,0.00,WeatherDisplay:10.37,2013-11-24 14:48:00,
2013-11-24 08:53:00,16.4,8.0,30.68,North,360,3.5,3.5,69,0.00,CLR,,0.00,WeatherDisplay:10.37,2013-11-24 14:53:00,
2013-11-24 08:58:00,16.8,8.4,30.68,NNE,12,5.0,5.0,69,0.00,CLR,,0.00,WeatherDisplay:10.37,2013-11-24 14:58:00,
2013-11-24 09:03:00,16.9,8.5,30.68,North,360,2.3,2.3,69,0.00,CLR,,0.00,WeatherDisplay:10.37,2013-11-24 15:03:00,
2013-11-24 09:08:00,17.3,8.9,30.68,North,360,3.0,3.0,69,0.00,CLR,,0.00,WeatherDisplay:10.37,2013-11-24 15:08:00,
2013-11-24 09:13:00,17.6,8.8,30.68,NNE,17,3.5,3.5,68,0.00,CLR,,0.00,WeatherDisplay:10.37,2013-11-24 15:13:00,
2013-11-24 09:18:00,17.8,9.0,30.68,NNE,15,0.0,0.0,68,0.00,CLR,,0.00,WeatherDisplay:10.37,2013-11-24 15:18:00,
2013-11-24 09:23:00,18.7,9.9,30.68,NNE,20,0.0,0.1,68,0.00,CLR,,0.00,WeatherDisplay:10.37,2013-11-24 15:23:00,
2013-11-24 09:28:00,18.9,9.7,30.68,NNE,19,3.5,3.5,67,0.00,CLR,,0.00,WeatherDisplay:10.37,2013-11-24 15:28:00,
2013-11-24 09:33:00,19.0,9.8,30.68,NNE,19,0.0,0.0,67,0.00,CLR,,0.00,WeatherDisplay:10.37,2013-11-24 15:33:00,
2013-11-24 09:38:00,19.7,10.5,30.68,NNE,19,0.0,0.0,67,0.00,CLR,,0.00,WeatherDisplay:10.37,2013-11-24 15:38:00,
2013-11-24 09:43:00,19.7,10.2,30.68,NNW,344,0.0,0.0,66,0.00,CLR,,0.00,WeatherDisplay:10.37,2013-11-24 15:43:00,
2013-11-24 09:48:00,19.7,10.2,30.68,West,265,2.3,2.3,66,0.00,CLR,,0.00,WeatherDisplay:10.37,2013-11-24 15:48:00,
2013-11-24 09:53:00,19.5,10.0,30.68,West,260,0.0,0.0,66,0.00,CLR,,0.00,WeatherDisplay:10.37,2013-11-24 15:53:00,
2013-11-24 09:58:00,19.4,9.9,30.69,WNW,300,0.0,0.0,66,0.00,CLR,,0.00,WeatherDisplay:10.37,2013-11-24 15:58:00,
2013-11-24 10:03:00,19.6,10.1,30.69,WNW,303,0.0,0.0,66,0.00,CLR,,0.00,WeatherDisplay:10.37,2013-11-24 16:03:00,
2013-11-24 10:08:00,19.7,10.2,30.69,West,277,3.5,3.5,66,0.00,CLR,,0.00,WeatherDisplay:10.37,2013-11-24 16:08:00,
2013-11-24 10:13:00,20.2,10.6,30.69,NW,304,3.0,3.0,66,0.00,CLR,,0.00,WeatherDisplay:10.37,2013-11-24 16:13:00,
2013-11-24 10:18:00,20.5,10.9,30.68,West,277,5.8,5.8,66,0.00,CLR,,0.00,WeatherDisplay:10.37,2013-11-24 16:18:00,
2013-11-24 10:23:00,20.1,9.9,30.68,West,267,6.9,6.9,64,0.00,CLR,,0.00,WeatherDisplay:10.37,2013-11-24 16:23:00,
2013-11-24 10:28:00,19.9,9.3,30.68,WNW,288,6.0,6.0,63,0.00,CLR,,0.00,WeatherDisplay:10.37,2013-11-24 16:28:00,
2013-11-24 10:33:00,20.0,9.4,30.67,WNW,287,4.6,4.6,63,0.00,CLR,,0.00,WeatherDisplay:10.37,2013-11-24 16:33:00,
2013-11-24 10:38:00,20.1,9.5,30.67,NW,306,5.8,5.8,63,0.00,CLR,,0.00,WeatherDisplay:10.37,2013-11-24 16:38:00,
2013-11-24 10:43:00,20.4,10.1,30.67,WNW,284,3.5,3.5,64,0.00,CLR,,0.00,WeatherDisplay:10.37,2013-11-24 16:43:00,
2013-11-24 10:48:00,20.8,10.5,30.67,WSW,256,5.0,5.0,64,0.00,CLR,,0.00,WeatherDisplay:10.37,2013-11-24 16:48:00,
2013-11-24 10:53:00,20.9,10.3,30.66,WSW,258,3.5,3.5,63,0.00,CLR,,0.00,WeatherDisplay:10.37,2013-11-24 16:53:00,
2013-11-24 10:58:00,21.3,10.3,30.66,WNW,302,3.5,3.5,62,0.00,CLR,,0.00,WeatherDisplay:10.37,2013-11-24 16:58:00,
2013-11-24 11:03:00,21.5,9.7,30.65,WSW,246,5.8,5.8,60,0.00,CLR,,0.00,WeatherDisplay:10.37,2013-11-24 17:03:00,
2013-11-24 11:08:00,21.6,9.1,30.65,WNW,288,8.0,8.0,58,0.00,CLR,,0.00,WeatherDisplay:10.37,2013-11-24 17:08:00,
2013-11-24 11:13:00,21.7,8.0,30.64,NW,322,9.2,9.2,55,0.00,CLR,,0.00,WeatherDisplay:10.37,2013-11-24 17:13:00,
2013-11-24 11:18:00,21.5,7.8,30.64,West,281,10.4,10.4,55,0.00,CLR,,0.00,WeatherDisplay:10.37,2013-11-24 17:18:00,
2013-11-24 11:23:00,21.8,8.5,30.64,West,272,3.5,3.5,56,0.00,CLR,,0.00,WeatherDisplay:10.37,2013-11-24 17:23:00,
2013-11-24 11:28:00,22.0,7.5,30.64,NW,313,10.4,10.4,53,0.00,CLR,,0.00,WeatherDisplay:10.37,2013-11-24 17:28:00,
2013-11-24 11:33:00,21.6,7.1,30.63,NW,325,3.5,3.5,53,0.00,CLR,,0.00,WeatherDisplay:10.37,2013-11-24 17:33:00,
2013-11-24 11:38:00,22.0,8.3,30.63,North,5,4.6,4.6,55,0.00,CLR,,0.00,WeatherDisplay:10.37,2013-11-24 17:38:00,
2013-11-24 11:43:00,22.4,8.2,30.62,NW,307,4.6,4.6,54,0.00,CLR,,0.00,WeatherDisplay:10.37,2013-11-24 17:43:00,
2013-11-24 11:48:00,22.5,7.9,30.62,NNW,331,4.6,4.6,53,0.00,CLR,,0.00,WeatherDisplay:10.37,2013-11-24 17:48:00,
2013-11-24 11:53:00,22.6,7.6,30.62,WNW,284,2.3,2.3,52,0.00,CLR,,0.00,WeatherDisplay:10.37,2013-11-24 17:53:00,
2013-11-24 11:58:00,22.9,8.3,30.61,NW,321,5.8,5.8,53,0.00,CLR,,0.00,WeatherDisplay:10.37,2013-11-24 17:58:00,
2013-11-24 12:03:00,22.8,8.2,30.61,WNW,300,0.0,0.0,53,0.00,CLR,,0.00,WeatherDisplay:10.37,2013-11-24 18:03:00,
2013-11-24 12:08:00,23.0,8.8,30.61,WNW,282,0.0,0.0,54,0.00,CLR,,0.00,WeatherDisplay:10.37,2013-11-24 18:08:00,
2013-11-24 12:13:00,23.1,8.9,30.61,NW,317,3.5,3.5,54,0.00,CLR,,0.00,WeatherDisplay:10.37,2013-11-24 18:13:00,
2013-11-24 12:18:00,23.1,8.9,30.60,WSW,238,4.6,4.6,54,0.00,CLR,,0.00,WeatherDisplay:10.37,2013-11-24 18:18:00,
2013-11-24 12:23:00,23.0,8.8,30.60,WSW,238,0.0,0.0,54,0.00,CLR,,0.00,WeatherDisplay:10.37,2013-11-24 18:23:00,
2013-11-24 12:28:00,23.9,9.6,30.60,WNW,302,3.5,3.5,54,0.00,CLR,,0.00,WeatherDisplay:10.37,2013-11-24 18:28:00,
2013-11-24 12:33:00,24.3,9.6,30.59,WNW,294,0.0,0.0,53,0.00,CLR,,0.00,WeatherDisplay:10.37,2013-11-24 18:33:00,
2013-11-24 12:38:00,24.1,9.0,30.59,NW,316,1.2,1.2,52,0.00,CLR,,0.00,WeatherDisplay:10.37,2013-11-24 18:38:00,
2013-11-24 12:43:00,24.1,9.0,30.58,NW,321,0.0,0.0,52,0.00,CLR,,0.00,WeatherDisplay:10.37,2013-11-24 18:43:00,
2013-11-24 12:48:00,24.1,8.6,30.58,NW,317,3.5,3.5,51,0.00,CLR,,0.00,WeatherDisplay:10.37,2013-11-24 18:48:00,
2013-11-24 12:53:00,24.3,8.7,30.58,NW,313,9.2,9.2,51,0.00,CLR,,0.00,WeatherDisplay:10.37,2013-11-24 18:53:00,
2013-11-24 12:58:00,24.3,8.7,30.58,NW,319,0.0,0.0,51,0.00,CLR,,0.00,WeatherDisplay:10.37,2013-11-24 18:58:00,
2013-11-24 13:03:00,24.8,9.2,30.57,NW,304,6.9,6.9,51,0.00,CLR,,0.00,WeatherDisplay:10.37,2013-11-24 19:03:00,
2013-11-24 13:08:00,24.9,9.3,30.57,NNW,329,6.0,6.0,51,0.00,CLR,,0.00,WeatherDisplay:10.37,2013-11-24 19:08:00,
2013-11-24 13:13:00,24.8,8.8,30.57,West,274,4.6,4.6,50,0.00,CLR,,0.00,WeatherDisplay:10.37,2013-11-24 19:13:00,
2013-11-24 13:18:00,24.6,9.0,30.57,WNW,291,10.4,10.4,51,0.00,CLR,,0.00,WeatherDisplay:10.37,2013-11-24 19:18:00,
2013-11-24 13:23:00,24.9,9.3,30.56,WSW,245,1.0,0.0,51,0.00,CLR,,0.00,WeatherDisplay:10.37,2013-11-24 19:23:00,
2013-11-24 13:28:00,25.2,8.7,30.56,WNW,283,6.9,6.9,49,0.00,CLR,,0.00,WeatherDisplay:10.37,2013-11-24 19:28:00,
2013-11-24 13:33:00,25.6,8.6,30.56,NNW,333,4.6,4.6,48,0.00,CLR,,0.00,WeatherDisplay:10.37,2013-11-24 19:33:00,
2013-11-24 13:38:00,25.5,7.6,30.56,NNW,346,0.0,0.0,46,0.00,CLR,,0.00,WeatherDisplay:10.37,2013-11-24 19:38:00,
2013-11-24 13:43:00,25.6,6.7,30.56,East,86,0.0,0.0,44,0.00,CLR,,0.00,WeatherDisplay:10.37,2013-11-24 19:43:00,
2013-11-24 13:49:00,25.7,7.3,30.55,ENE,78,0.0,0.0,45,0.00,CLR,,0.00,WeatherDisplay:10.37,2013-11-24 19:49:00,
2013-11-24 13:54:00,26.1,7.1,30.55,NNW,337,0.0,0.0,44,0.00,CLR,,0.00,WeatherDisplay:10.37,2013-11-24 19:54:00,
2013-11-24 13:59:00,26.1,7.1,30.55,NW,323,0.0,0.0,44,0.00,CLR,,0.00,WeatherDisplay:10.37,2013-11-24 19:59:00,
2013-11-24 14:04:00,26.2,7.2,30.54,NW,323,0.0,0.0,44,0.00,CLR,,0.00,WeatherDisplay:10.37,2013-11-24 20:04:00,
2013-11-24 14:09:00,26.2,7.2,30.54,NW,322,0.0,0.0,44,0.00,CLR,,0.00,WeatherDisplay:10.37,2013-11-24 20:09:00,
2013-11-24 14:14:00,26.2,6.7,30.54,East,97,0.0,0.0,43,0.00,CLR,,0.00,WeatherDisplay:10.37,2013-11-24 20:14:00,
2013-11-24 14:19:00,26.2,6.7,30.54,East,96,0.0,0.0,43,0.00,CLR,,0.00,WeatherDisplay:10.37,2013-11-24 20:19:00,
2013-11-24 14:24:00,26.5,7.0,30.54,East,96,0.0,0.0,43,0.00,CLR,,0.00,WeatherDisplay:10.37,2013-11-24 20:24:00,
2013-11-24 14:29:00,26.8,7.3,30.54,NE,35,0.0,0.0,43,0.00,CLR,,0.00,WeatherDisplay:10.37,2013-11-24 20:29:00,
2013-11-24 14:34:00,27.0,8.0,30.54,NW,309,0.0,0.0,44,0.00,CLR,,0.00,WeatherDisplay:10.37,2013-11-24 20:34:00,
2013-11-24 14:39:00,27.3,8.2,30.54,NW,317,0.0,0.0,44,0.00,CLR,,0.00,WeatherDisplay:10.37,2013-11-24 20:39:00,
2013-11-24 14:44:00,26.7,7.2,30.54,NW,315,0.0,0.0,43,0.00,CLR,,0.00,WeatherDisplay:10.37,2013-11-24 20:44:00,
2013-11-24 14:49:00,26.4,6.9,30.54,NNE,33,0.0,0.0,43,0.00,CLR,,0.00,WeatherDisplay:10.37,2013-11-24 20:49:00,
2013-11-24 14:54:00,26.3,7.3,30.54,NNW,344,0.0,0.0,44,0.00,CLR,,0.00,WeatherDisplay:10.37,2013-11-24 20:54:00,
2013-11-24 14:59:00,26.2,7.2,30.54,NW,324,0.0,0.0,44,0.00,CLR,,0.00,WeatherDisplay:10.37,2013-11-24 20:59:00,
2013-11-24 15:04:00,26.1,6.6,30.54,NW,323,0.0,0.0,43,0.00,CLR,,0.00,WeatherDisplay:10.37,2013-11-24 21:04:00,
2013-11-24 15:09:00,25.8,6.9,30.54,NW,321,0.0,0.0,44,0.00,CLR,,0.00,WeatherDisplay:10.37,2013-11-24 21:09:00,
2013-11-24 15:14:00,25.9,7.4,30.54,NW,318,0.0,0.0,45,0.00,CLR,,0.00,WeatherDisplay:10.37,2013-11-24 21:14:00,
2013-11-24 15:19:00,26.2,7.7,30.54,NW,317,0.0,0.0,45,0.00,CLR,,0.00,WeatherDisplay:10.37,2013-11-24 21:19:00,
2013-11-24 15:24:00,26.0,7.0,30.53,WSW,242,0.0,0.0,44,0.00,CLR,,0.00,WeatherDisplay:10.37,2013-11-24 21:24:00,
2013-11-24 15:29:00,25.7,6.8,30.53,WSW,243,0.0,0.0,44,0.00,CLR,,0.00,WeatherDisplay:10.37,2013-11-24 21:29:00,
2013-11-24 15:34:00,25.5,7.1,30.53,WSW,242,0.0,0.0,45,0.00,CLR,,0.00,WeatherDisplay:10.37,2013-11-24 21:34:00,
2013-11-24 15:39:00,25.3,6.9,30.53,WSW,242,0.0,0.0,45,0.00,CLR,,0.00,WeatherDisplay:10.37,2013-11-24 21:39:00,
2013-11-24 15:44:00,25.2,7.3,30.53,WSW,243,0.0,0.0,46,0.00,CLR,,0.00,WeatherDisplay:10.37,2013-11-24 21:44:00,
2013-11-24 15:49:00,25.1,8.1,30.53,WSW,243,0.0,0.0,48,0.00,CLR,,0.00,WeatherDisplay:10.37,2013-11-24 21:49:00,
2013-11-24 15:54:00,25.0,8.5,30.52,WSW,242,0.0,0.0,49,0.00,CLR,,0.00,WeatherDisplay:10.37,2013-11-24 21:54:00,
2013-11-24 15:59:00,24.9,8.9,30.52,WSW,244,0.0,0.0,50,0.00,CLR,,0.00,WeatherDisplay:10.37,2013-11-24 21:59:00,
2013-11-24 16:04:00,24.8,9.2,30.52,WSW,245,0.0,0.0,51,0.00,CLR,,0.00,WeatherDisplay:10.37,2013-11-24 22:04:00,
2013-11-24 16:09:00,24.7,9.1,30.52,WSW,245,0.0,0.0,51,0.00,CLR,,0.00,WeatherDisplay:10.37,2013-11-24 22:09:00,
2013-11-24 16:14:00,24.5,9.4,30.52,WSW,245,0.0,0.0,52,0.00,CLR,,0.00,WeatherDisplay:10.37,2013-11-24 22:14:00,
2013-11-24 16:19:00,24.3,9.6,30.52,WSW,245,0.0,0.0,53,0.00,CLR,,0.00,WeatherDisplay:10.37,2013-11-24 22:19:00,
2013-11-24 16:24:00,24.2,9.5,30.51,WSW,245,0.0,0.0,53,0.00,CLR,,0.00,WeatherDisplay:10.37,2013-11-24 22:24:00,
2013-11-24 16:29:00,24.0,9.7,30.51,WSW,245,0.0,0.0,54,0.00,CLR,,0.00,WeatherDisplay:10.37,2013-11-24 22:29:00,
2013-11-24 16:34:00,23.9,9.6,30.51,WSW,245,0.0,0.0,54,0.00,CLR,,0.00,WeatherDisplay:10.37,2013-11-24 22:34:00,
2013-11-24 16:39:00,23.8,9.6,30.51,WSW,245,0.0,0.0,54,0.00,CLR,,0.00,WeatherDisplay:10.37,2013-11-24 22:39:00,
2013-11-24 16:44:00,23.7,9.5,30.51,WSW,245,0.0,0.0,54,0.00,CLR,,0.00,WeatherDisplay:10.37,2013-11-24 22:44:00,
2013-11-24 16:49:00,23.6,9.8,30.50,WSW,245,0.0,0.0,55,0.00,CLR,,0.00,WeatherDisplay:10.37,2013-11-24 22:49:00,
2013-11-24 16:54:00,23.5,9.3,30.50,WSW,245,0.0,0.0,54,0.00,CLR,,0.00,WeatherDisplay:10.37,2013-11-24 22:54:00,
2013-11-24 16:59:00,23.4,9.6,30.50,WSW,245,0.0,0.0,55,0.00,CLR,,0.00,WeatherDisplay:10.37,2013-11-24 22:59:00,
2013-11-24 17:04:00,23.3,9.5,30.50,WSW,245,0.0,0.0,55,0.00,CLR,,0.00,WeatherDisplay:10.37,2013-11-24 23:04:00,
2013-11-24 17:09:00,23.2,9.8,30.50,WSW,245,0.0,0.0,56,0.00,CLR,,0.00,WeatherDisplay:10.37,2013-11-24 23:09:00,
2013-11-24 17:14:00,23.1,10.5,30.50,WSW,245,0.0,0.0,58,0.00,CLR,,0.00,WeatherDisplay:10.37,2013-11-24 23:14:00,
2013-11-24 17:19:00,22.9,11.1,30.50,WSW,245,0.0,0.0,60,0.00,CLR,,0.00,WeatherDisplay:10.37,2013-11-24 23:19:00,
2013-11-24 17:24:00,22.8,10.6,30.50,WSW,245,0.0,0.0,59,0.00,CLR,,0.00,WeatherDisplay:10.37,2013-11-24 23:24:00,
2013-11-24 17:29:00,22.7,10.5,30.51,WSW,245,0.0,0.0,59,0.00,CLR,,0.00,WeatherDisplay:10.37,2013-11-24 23:29:00,
2013-11-24 17:34:00,22.7,10.5,30.51,WSW,245,0.0,0.0,59,0.00,CLR,,0.00,WeatherDisplay:10.37,2013-11-24 23:34:00,
2013-11-24 17:39:00,22.6,10.4,30.50,WSW,245,0.0,0.0,59,0.00,CLR,,0.00,WeatherDisplay:10.37,2013-11-24 23:39:00,
2013-11-24 17:44:00,22.5,10.7,30.51,WSW,245,0.0,0.0,60,0.00,CLR,,0.00,WeatherDisplay:10.37,2013-11-24 23:44:00,
2013-11-24 17:49:00,22.3,10.9,30.51,WSW,245,0.0,0.0,61,0.00,CLR,,0.00,WeatherDisplay:10.37,2013-11-24 23:49:00,
2013-11-24 17:54:00,22.2,10.4,30.51,WSW,245,0.0,0.0,60,0.00,CLR,,0.00,WeatherDisplay:10.37,2013-11-24 23:54:00,
2013-11-24 17:59:00,22.1,10.3,30.51,WSW,245,0.0,0.0,60,0.00,CLR,,0.00,WeatherDisplay:10.37,2013-11-24 23:59:00,
2013-11-24 18:04:00,22.2,10.0,30.51,WSW,245,0.0,0.0,59,0.00,CLR,,0.00,WeatherDisplay:10.37,2013-11-25 00:04:00,
2013-11-24 18:09:00,22.2,10.0,30.51,WSW,245,0.0,0.0,59,0.00,CLR,,0.00,WeatherDisplay:10.37,2013-11-25 00:09:00,
2013-11-24 18:14:00,22.2,10.0,30.51,WSW,245,0.0,0.0,59,0.00,CLR,,0.00,WeatherDisplay:10.37,2013-11-25 00:14:00,
2013-11-24 18:19:00,22.1,10.7,30.51,WSW,244,0.0,0.0,61,0.00,CLR,,0.00,WeatherDisplay:10.37,2013-11-25 00:19:00,
2013-11-24 18:24:00,22.1,11.1,30.51,WSW,245,0.0,0.0,62,0.00,CLR,,0.00,WeatherDisplay:10.37,2013-11-25 00:24:00,
2013-11-24 18:29:00,21.8,11.1,30.50,WSW,245,0.0,0.0,63,0.00,CLR,,0.00,WeatherDisplay:10.37,2013-11-25 00:29:00,
2013-11-24 18:34:00,21.5,10.8,30.50,WSW,245,0.0,0.0,63,0.00,CLR,,0.00,WeatherDisplay:10.37,2013-11-25 00:34:00,
2013-11-24 18:39:00,21.3,11.0,30.50,WSW,244,0.0,0.0,64,0.00,CLR,,0.00,WeatherDisplay:10.37,2013-11-25 00:39:00,
2013-11-24 18:44:00,21.1,10.8,30.50,WSW,245,0.0,0.0,64,0.00,CLR,,0.00,WeatherDisplay:10.37,2013-11-25 00:44:00,
2013-11-24 18:49:00,20.8,10.9,30.50,WSW,245,0.0,0.0,65,0.00,CLR,,0.00,WeatherDisplay:10.37,2013-11-25 00:49:00,
2013-11-24 18:54:00,20.6,11.0,30.50,WSW,245,0.0,0.0,66,0.00,CLR,,0.00,WeatherDisplay:10.37,2013-11-25 00:54:00,
2013-11-24 18:59:00,20.3,11.1,30.50,WSW,245,0.0,0.0,67,0.00,CLR,,0.00,WeatherDisplay:10.37,2013-11-25 00:59:00,
2013-11-24 19:04:00,20.1,10.9,30.50,WSW,245,0.0,0.0,67,0.00,CLR,,0.00,WeatherDisplay:10.37,2013-11-25 01:04:00,
2013-11-24 19:09:00,19.9,11.0,30.49,WSW,245,0.0,0.0,68,0.00,CLR,,0.00,WeatherDisplay:10.37,2013-11-25 01:09:00,
2013-11-24 19:14:00,19.7,10.8,30.49,WSW,245,0.0,0.0,68,0.00,CLR,,0.00,WeatherDisplay:10.37,2013-11-25 01:14:00,
2013-11-24 19:19:00,19.7,10.8,30.49,WSW,245,0.0,0.0,68,0.00,CLR,,0.00,WeatherDisplay:10.37,2013-11-25 01:19:00,
2013-11-24 19:24:00,19.7,10.8,30.49,WSW,244,0.0,0.0,68,0.00,CLR,,0.00,WeatherDisplay:10.37,2013-11-25 01:24:00,
2013-11-24 19:29:00,19.7,10.8,30.49,WSW,245,0.0,0.0,68,0.00,CLR,,0.00,WeatherDisplay:10.37,2013-11-25 01:29:00,
2013-11-24 19:34:00,19.7,11.2,30.49,WSW,245,0.0,0.0,69,0.00,CLR,,0.00,WeatherDisplay:10.37,2013-11-25 01:34:00,
2013-11-24 19:39:00,19.7,11.2,30.48,WSW,245,0.0,0.0,69,0.00,CLR,,0.00,WeatherDisplay:10.37,2013-11-25 01:39:00,
2013-11-24 19:44:00,19.7,11.2,30.48,WSW,245,0.0,0.0,69,0.00,CLR,,0.00,WeatherDisplay:10.37,2013-11-25 01:44:00,
2013-11-24 19:49:00,19.7,11.2,30.48,WSW,245,0.0,0.0,69,0.00,CLR,,0.00,WeatherDisplay:10.37,2013-11-25 01:49:00,
2013-11-24 19:54:00,19.7,10.8,30.48,WSW,245,0.0,0.0,68,0.00,CLR,,0.00,WeatherDisplay:10.37,2013-11-25 01:54:00,
2013-11-24 19:59:00,20.0,10.8,30.48,WSW,245,0.0,0.0,67,0.00,CLR,,0.00,WeatherDisplay:10.37,2013-11-25 01:59:00,
2013-11-24 20:05:00,20.1,10.9,30.48,WSW,245,0.0,0.0,67,0.00,CLR,,0.00,WeatherDisplay:10.37,2013-11-25 02:05:00,
2013-11-24 20:10:00,20.0,10.8,30.47,WSW,245,0.0,0.0,67,0.00,CLR,,0.00,WeatherDisplay:10.37,2013-11-25 02:10:00,
2013-11-24 20:15:00,20.0,10.8,30.48,WSW,245,0.0,0.0,67,0.00,CLR,,0.00,WeatherDisplay:10.37,2013-11-25 02:15:00,
2013-11-24 20:20:00,20.1,10.6,30.48,WSW,242,0.0,0.0,66,0.00,CLR,,0.00,WeatherDisplay:10.37,2013-11-25 02:20:00,
2013-11-24 20:25:00,20.2,10.3,30.47,WSW,238,0.0,0.0,65,0.00,CLR,,0.00,WeatherDisplay:10.37,2013-11-25 02:25:00,
2013-11-24 20:30:00,20.2,10.3,30.47,SW,223,3.5,3.5,65,0.00,CLR,,0.00,WeatherDisplay:10.37,2013-11-25 02:30:00,
2013-11-24 20:35:00,20.2,10.3,30.47,SW,221,3.5,3.5,65,0.00,CLR,,0.00,WeatherDisplay:10.37,2013-11-25 02:35:00,
2013-11-24 20:40:00,20.2,10.3,30.47,SW,221,3.5,3.5,65,0.00,CLR,,0.00,WeatherDisplay:10.37,2013-11-25 02:40:00,
2013-11-24 20:45:00,20.2,10.3,30.47,SW,219,3.5,3.5,65,0.00,CLR,,0.00,WeatherDisplay:10.37,2013-11-25 02:45:00,
2013-11-24 20:50:00,20.2,10.6,30.46,SW,219,1.2,1.2,66,0.00,CLR,,0.00,WeatherDisplay:10.37,2013-11-25 02:50:00,
2013-11-24 20:55:00,20.2,10.6,30.46,SW,219,2.3,2.3,66,0.00,CLR,,0.00,WeatherDisplay:10.37,2013-11-25 02:55:00,
2013-11-24 21:00:00,20.2,10.6,30.46,SW,218,1.2,1.2,66,0.00,CLR,,0.00,WeatherDisplay:10.37,2013-11-25 03:00:00,
2013-11-24 21:05:00,20.2,10.3,30.46,SW,219,1.2,1.2,65,0.00,CLR,,0.00,WeatherDisplay:10.37,2013-11-25 03:05:00,
2013-11-24 21:10:00,20.2,10.3,30.46,SW,218,2.3,2.3,65,0.00,CLR,,0.00,WeatherDisplay:10.37,2013-11-25 03:10:00,
2013-11-24 21:15:00,20.0,10.5,30.46,SW,219,0.0,0.0,66,0.00,CLR,,0.00,WeatherDisplay:10.37,2013-11-25 03:15:00,
2013-11-24 21:20:00,19.7,10.2,30.46,SW,219,1.2,1.2,66,0.00,CLR,,0.00,WeatherDisplay:10.37,2013-11-25 03:20:00,
2013-11-24 21:25:00,19.7,10.2,30.45,SW,219,1.2,1.2,66,0.00,CLR,,0.00,WeatherDisplay:10.37,2013-11-25 03:25:00,
2013-11-24 21:30:00,19.5,10.0,30.45,SW,219,2.3,2.3,66,0.00,CLR,,0.00,WeatherDisplay:10.37,2013-11-25 03:30:00,
2013-11-24 21:35:00,19.7,10.2,30.45,SW,219,2.3,2.3,66,0.00,CLR,,0.00,WeatherDisplay:10.37,2013-11-25 03:35:00,
2013-11-24 21:40:00,19.7,10.2,30.45,SW,218,0.0,0.0,66,0.00,CLR,,0.00,WeatherDisplay:10.37,2013-11-25 03:40:00,
2013-11-24 21:45:00,19.7,10.5,30.45,SW,218,0.0,0.0,67,0.00,CLR,,0.00,WeatherDisplay:10.37,2013-11-25 03:45:00,
2013-11-24 21:50:00,19.5,10.3,30.45,SW,219,0.0,0.0,67,0.00,CLR,,0.00,WeatherDisplay:10.37,2013-11-25 03:50:00,
2013-11-24 21:55:00,19.4,10.2,30.45,SW,219,0.0,0.0,67,0.00,CLR,,0.00,WeatherDisplay:10.37,2013-11-25 03:55:00,
2013-11-24 22:00:00,19.4,10.2,30.44,SW,218,3.5,3.5,67,0.00,CLR,,0.00,WeatherDisplay:10.37,2013-11-25 04:00:00,
2013-11-24 22:05:00,19.4,10.2,30.44,SW,219,2.3,2.3,67,0.00,CLR,,0.00,WeatherDisplay:10.37,2013-11-25 04:05:00,
2013-11-24 22:10:00,19.5,10.3,30.44,SW,219,3.5,3.5,67,0.00,CLR,,0.00,WeatherDisplay:10.37,2013-11-25 04:10:00,
2013-11-24 22:15:00,19.5,10.3,30.44,SW,219,1.2,1.2,67,0.00,CLR,,0.00,WeatherDisplay:10.37,2013-11-25 04:15:00,
2013-11-24 22:20:00,19.5,10.3,30.44,SW,219,1.2,1.2,67,0.00,CLR,,0.00,WeatherDisplay:10.37,2013-11-25 04:20:00,
2013-11-24 22:25:00,19.5,10.3,30.43,SW,219,3.5,3.5,67,0.00,CLR,,0.00,WeatherDisplay:10.37,2013-11-25 04:25:00,
2013-11-24 22:30:00,19.5,10.3,30.43,SW,218,2.3,2.3,67,0.00,CLR,,0.00,WeatherDisplay:10.37,2013-11-25 04:30:00,
2013-11-24 22:35:00,19.5,10.3,30.43,South,178,3.0,3.0,67,0.00,CLR,,0.00,WeatherDisplay:10.37,2013-11-25 04:35:00,
2013-11-24 22:40:00,19.5,10.3,30.43,South,176,2.3,2.3,67,0.00,CLR,,0.00,WeatherDisplay:10.37,2013-11-25 04:40:00,
2013-11-24 22:45:00,19.7,10.5,30.43,South,186,3.5,3.5,67,0.00,CLR,,0.00,WeatherDisplay:10.37,2013-11-25 04:45:00,
2013-11-24 22:50:00,19.7,10.2,30.43,South,184,2.3,2.3,66,0.00,CLR,,0.00,WeatherDisplay:10.37,2013-11-25 04:50:00,
2013-11-24 22:55:00,19.7,10.2,30.43,South,187,3.0,3.0,66,0.00,CLR,,0.00,WeatherDisplay:10.37,2013-11-25 04:55:00,
2013-11-24 23:00:00,19.7,10.2,30.43,South,186,2.3,2.3,66,0.00,CLR,,0.00,WeatherDisplay:10.37,2013-11-25 05:00:00,
2013-11-24 23:01:00,19.7,10.2,30.43,South,186,2.3,2.3,66,0.00,CLR,,0.00,WeatherDisplay:10.37,2013-11-25 05:01:00,
2013-11-24 23:02:00,19.8,9.9,30.43,South,179,3.5,3.5,65,0.00,CLR,,0.00,WeatherDisplay:10.37,2013-11-25 05:02:00,
2013-11-24 23:07:00,19.9,10.0,30.43,South,177,3.5,3.5,65,0.00,CLR,,0.00,WeatherDisplay:10.37,2013-11-25 05:07:00,
2013-11-24 23:12:00,20.0,10.1,30.43,South,185,3.5,3.5,65,0.00,CLR,,0.00,WeatherDisplay:10.37,2013-11-25 05:12:00,
2013-11-24 23:17:00,20.0,10.1,30.42,South,184,2.3,2.3,65,0.00,CLR,,0.00,WeatherDisplay:10.37,2013-11-25 05:17:00,
2013-11-24 23:22:00,19.9,10.0,30.43,South,186,3.5,3.5,65,0.00,CLR,,0.00,WeatherDisplay:10.37,2013-11-25 05:22:00,
2013-11-24 23:27:00,19.9,10.0,30.43,South,188,2.3,2.3,65,0.00,CLR,,0.00,WeatherDisplay:10.37,2013-11-25 05:27:00,
2013-11-24 23:32:00,19.8,9.9,30.43,South,187,3.5,3.5,65,0.00,CLR,,0.00,WeatherDisplay:10.37,2013-11-25 05:32:00,
2013-11-24 23:37:00,19.8,10.3,30.42,South,187,3.5,3.5,66,0.00,CLR,,0.00,WeatherDisplay:10.37,2013-11-25 05:37:00,
2013-11-24 23:42:00,19.7,10.2,30.42,South,182,3.5,3.5,66,0.00,CLR,,0.00,WeatherDisplay:10.37,2013-11-25 05:42:00,
2013-11-24 23:47:00,19.7,10.2,30.42,South,187,3.5,3.5,66,0.00,CLR,,0.00,WeatherDisplay:10.37,2013-11-25 05:47:00,
2013-11-24 23:52:00,19.7,10.2,30.42,South,187,2.3,2.3,66,0.00,CLR,,0.00,WeatherDisplay:10.37,2013-11-25 05:52:00,
2013-11-24 23:57:00,19.7,10.5,30.41,South,187,3.5,3.5,67,0.00,CLR,,0.00,WeatherDisplay:10.37,2013-11-25 05:57:00,